Home   Weather   Longueuil   Past weeks

Flag for Canada Past Weather in Longueuil, Quebec, Canada — Yesterday and Last 2 Weeks

Now
43 °F

Quite cool.


Feels Like: 39 °F
Forecast: 31 / 48 °F
Wind: 8 mph from North

Location: Mc Tavish

Current Time: Apr 24, 2017 at 1:38:05 am

Latest Report: Apr 24, 2017 at 1:00 am


Visibility: N/A

Pressure: 30.12 "Hg

Humidity: 64%

Dew Point: 32 °F

Location of LongueuilLocation

Past Weather in Longueuil — Graph

°F

Longueuil Temperature Yesterday

Maximum temperature yesterday: 64 °F (at 5:00 pm)
Minimum temperature yesterday: 39 °F (at 6:00 am)
Average temperature yesterday: 51 °F

High & Low Weather Summary for the Past Weeks

 TemperatureHumidityPressure
High77 °F (Apr 10, 4:00 pm)100% (Apr 11, 9:00 pm)30.49 "Hg (Apr 11, 9:00 pm)
Low35 °F (Apr 18, 6:00 am)17% (Apr 14, 3:00 pm)29.59 "Hg (Apr 16, 5:00 pm)
Average49 °F68%30.07 "Hg
* Reported Apr 9 12:00 am — Apr 24 12:00 am, Longueuil, Weather by CustomWeather, © 2017

Note: Actual official high and low records may vary slightly from our data, if they occured in-between our weather recording intervals... More about our weather records

Advertising

Longueuil Weather History for the Previous 24 Hours

Scroll right to see more
 ConditionsComfort  
Time TempWeatherWind HumidityBarometerVisibility
12:00 am
Mon, Apr 24
47 °FCool.6 mph68%30.10 "HgN/A
11:00 pm
Sun, Apr 23
51 °FCool.3 mph61%30.07 "HgN/A
10:00 pm53 °FCool.7 mph61%30.04 "HgN/A
9:00 pm53 °FCool.9 mph58%30.01 "HgN/A
8:00 pm60 °FRefreshingly cool.3 mph35%29.93 "HgN/A
7:00 pm61 °FRefreshingly cool.6 mph33%29.90 "HgN/A
6:00 pm64 °FMild.6 mph32%29.90 "HgN/A
5:00 pm64 °FMild.6 mph34%29.90 "HgN/A
4:00 pm62 °FRefreshingly cool.9 mph35%29.92 "HgN/A
3:00 pm61 °FRefreshingly cool.8 mph33%29.96 "HgN/A
2:00 pm60 °FRefreshingly cool.6 mph41%30.00 "HgN/A
1:00 pm56 °FRefreshingly cool.6 mph50%30.02 "HgN/A
12:00 pm53 °FCool.6 mph53%30.03 "HgN/A
11:00 am51 °FCool.5 mph53%30.06 "HgN/A
10:00 am47 °FCool.5 mph63%30.07 "HgN/A
9:00 am46 °FCool.5 mph64%30.08 "HgN/A
8:00 am45 °FCool.3 mph68%30.08 "HgN/A
7:00 am43 °FQuite cool.No wind69%30.06 "HgN/A
6:00 am39 °FChilly.1 mph74%30.06 "HgN/A
5:00 am41 °FQuite cool.3 mph72%30.05 "HgN/A
4:00 am41 °FQuite cool.5 mph74%30.04 "HgN/A
3:00 am42 °FQuite cool.3 mph75%30.04 "HgN/A
2:00 am42 °FQuite cool.3 mph74%30.06 "HgN/A
1:00 am43 °FQuite cool.3 mph73%30.05 "HgN/A
Weather by CustomWeather, © 2017

See weather overviewHow to use our weather pages